Location: Powder Track
(41.8531°N, 72.3584°W)
Time: 09:31:26
(UTC+00:00)

Transit 4A - Pass Details

Date: 08 August 2021
Orbit: 871 x 974 km, 66.8° (Epoch: 20 September)

Event Time Altitude Azimuth Distance (km) Brightness Sun altitude
Rises 04:45:09 0° 256° (WSW) 3,477 - -32.0°
Exits shadow 04:48:22 10° 273° (W) 2,533 10.2 -32.1°
Reaches altitude 10° 04:48:22 10° 273° (W) 2,530 10.2 -32.1°
Maximum altitude 04:52:31 20° 319° (NW) 1,930 10.0 -32.1°
Drops below altitude 10° 04:56:40 10° 5° (N) 2,525 11.0 -32.1°
Sets 04:59:54 0° 22° (NNE) 3,469 11.8 -32.1°
